CAPE
279 201 167 216 100 77 92 99 158 218 149 219 185 157 105 7 19 1 0 0 0 0
215 226 169 144 164 97 74 89 103 118 175 188 208 177 76 13 25 19 0 0 0 1
160 202 139 112 137 144 125 71 72 104 93 152 249 139 69 22 40 36 0 1 0 18
89 118 169 66 80 148 135 90 96 96 101 93 135 125 108 52 62 55 6 7 9 23
88 104 185 52 105 55 116 44 26 20 50 104 101 113 59 73 74 81 25 0 40 34
31 8 72 94 93 22 30 20 6 62 70 18 69 60 59 52 69 78 63 21 32 70
37 6 2 93 60 81 47 29 64 13 35 36 2 75 88 80 68 72 56 29 22 55
8 24 3 30 97 34 76 65 2 29 34 17 64 52 70 90 73 120 95 51 30 28
0 1 0 5 24 31 4 49 72 53 30 44 11 3 72 55 96 88 102 86 54 49
8 0 0 0 0 1 13 0 20 13 31 19 32 7 41 54 75 40 78 65 105 64
0 0 0 0 0 19 30 12 8 5 39 19 17 3 0 1 16 72 84 68 67 54
0 0 0 0 0 0 0 0 0 1 0 4 7 2 6 14 0 23 22 51 29 19
0 0 0 0 0 0 0 0 0 0 0 3 0 0 1 9 13 1 18 8 28 20
0 0 0 0 0 0 0 0 0 1 1 2 2 0 1 29 3 11 3 1 15 34
CIN
-2 0 0 0 -16 -17 -27 -64 -61 -32 -48 -29 -34 -37 -21 -104 -64 -36 0 0 0 0
-11 0 0 0 0 -17 -10 -36 -41 -45 -39 -24 -26 -36 -52 -95 -75 -75 0 0 0 -1
0 0 0 0 -1 0 0 -13 -13 -35 -41 -40 -20 -50 -55 -84 -65 -62 0 -22 0 -10
0 -2 0 0 -5 0 0 -2 -4 -2 -16 -42 -41 -42 -35 -39 -56 -63 -69 -50 -27 -8
0 0 0 -3 0 -2 0 0 -8 -45 -6 -3 -26 -33 -33 -25 -50 -54 -57 0 -17 -7
0 -2 -1 0 0 0 -2 -38 -7 -12 0 0 -4 -14 -23 -12 -29 -47 -40 -66 -33 -9
0 -5 -4 0 -1 0 0 0 0 0 -6 -8 0 -3 -8 -14 -6 -14 -20 -37 -38 -16
-2 -7 -9 -1 0 -3 -1 0 -1 -5 0 -11 -2 0 -7 0 -1 0 -2 -5 -2 -10
0 -1 0 -4 -2 -2 0 0 0 0 -1 -5 0 -1 -10 -4 -3 0 0 -2 -6 -3
-1 0 0 0 0 0 0 0 0 -2 -6 -1 0 -6 0 -2 0 -9 -1 -18 -7 -6
-5 0 0 0 0 0 -2 0 0 0 -1 -9 -4 -4 0 0 0 0 0 -4 0 -1
0 0 0 0 0 0 -1 0 0 0 0 -3 -3 -2 -1 -2 0 0 0 -4 -5 -11
0 0 0 0 0 0 0 0 0 0 -2 0 0 0 0 0 0 -5 -1 0 0 0
0 0 0 0 0 0 0 0 0 -10 0 0 0 0 0 0 -3 0 -1 -2 0 -1
Wind_Speed
55 56 54 49 47 nan nan nan 40 40 40 41 44 46 47 nan nan nan nan nan nan nan
59 58 58 56 52 nan nan nan 46 43 43 42 44 46 nan nan nan nan nan nan nan nan
66 62 62 56 55 50 33 nan nan 49 nan 45 46 47 nan nan nan nan nan nan nan nan
nan 75 59 nan nan 53 55 nan nan nan 50 nan 48 50 46 nan nan nan nan nan nan nan
nan 72 76 nan 60 nan 58 nan nan nan nan 52 53 55 nan nan nan nan nan nan nan nan
nan nan nan nan nan nan nan nan nan nan nan nan nan nan nan nan nan nan nan nan nan nan
nan nan nan nan nan nan nan nan nan nan nan nan nan nan nan nan nan nan nan nan nan nan
nan nan nan nan nan nan nan nan nan nan nan nan nan nan nan nan nan 57 nan nan nan nan
nan nan nan nan nan nan nan nan nan nan nan nan nan nan nan nan nan nan 50 nan nan nan
nan nan nan nan nan nan nan nan nan nan nan nan nan nan nan nan nan nan nan nan 59 nan
nan nan nan nan nan nan nan nan nan nan nan nan nan nan nan nan nan nan nan nan nan nan
nan nan nan nan nan nan nan nan nan nan nan nan nan nan nan nan nan nan nan nan nan nan
nan nan nan nan nan nan nan nan nan nan nan nan nan nan nan nan nan nan nan nan nan nan
nan nan nan nan nan nan nan nan nan nan nan nan nan nan nan nan nan nan nan nan nan nan
Wind_Direction
230 226 224 229 232 nan nan nan 249 250 252 251 249 249 251 nan nan nan nan nan nan nan
226 229 227 227 228 nan nan nan 247 250 247 249 250 250 nan nan nan nan nan nan nan nan
217 228 227 234 231 229 234 nan nan 247 nan 251 251 252 nan nan nan nan nan nan nan nan
nan 218 229 nan nan 237 235 nan nan nan 244 nan 252 256 252 nan nan nan nan nan nan nan
nan 221 220 nan 233 nan 238 nan nan nan nan 249 251 252 nan nan nan nan nan nan nan nan
nan nan nan nan nan nan nan nan nan nan nan nan nan nan nan nan nan nan nan nan nan nan
nan nan nan nan nan nan nan nan nan nan nan nan nan nan nan nan nan nan nan nan nan nan
nan nan nan nan nan nan nan nan nan nan nan nan nan nan nan nan nan 262 nan nan nan nan
nan nan nan nan nan nan nan nan nan nan nan nan nan nan nan nan nan nan 257 nan nan nan
nan nan nan nan nan nan nan nan nan nan nan nan nan nan nan nan nan nan nan nan 257 nan
nan nan nan nan nan nan nan nan nan nan nan nan nan nan nan nan nan nan nan nan nan nan
nan nan nan nan nan nan nan nan nan nan nan nan nan nan nan nan nan nan nan nan nan nan
nan nan nan nan nan nan nan nan nan nan nan nan nan nan nan nan nan nan nan nan nan nan
nan nan nan nan nan nan nan nan nan nan nan nan nan nan nan nan nan nan nan nan nan nan